Flint, MI

1:41 AM EST on December 04, 2016 (GMT -0500)
Bishop International

Weather History for KFNT - October, 2013

Change the Weather History Date:

Sunday, October 27, 2013

  Actual Average Record
Temperature  
Mean Temperature 43 °F 46 °F  
Max Temperature 53 °F 55 °F 76 °F (1927)
Min Temperature 32 °F 37 °F 21 °F (1976)
Degree Days  
Heating Degree Days 22 19  
Month to date heating degree days 320 407  
Since 1 July heating degree days 494 617  
Cooling Degree Days 0 0  
Month to date cooling degree days 15 2  
Year to date cooling degree days 758 528  
Moisture  
Dew Point 30 °F    
Average Humidity 63    
Maximum Humidity 82    
Minimum Humidity 44    
Precipitation  
Precipitation 0.00 in 0.08 in 1.05 in (1967)
Month to date precipitation 1.67 2.17  
Year to date precipitation 27.87 26.48  
Snow  
Snow 0.00 in 0.00 in 2.60 in (1967)
Month to date snowfall T 0.3  
Since 1 July snowfall T 0.3  
Since 1 September snowfall T 0.3  
Snow Depth 0.00 in    
Sea Level Pressure  
Sea Level Pressure 30.02 in    
Wind  
Wind Speed 6 mph (WSW)    
Max Wind Speed 16 mph    
Max Gust Speed 22 mph    
Visibility 10 miles    
Events      
T = Trace of Precipitation, MM = Missing Value Source: NWS Daily Summary

Daily Weather History Graph

Daily Weather History Graph

Search for Another Location

Airport or City:

Trip Planner

Search our weather history database for the weather conditions in past years. The results will help you decide how hot, cold, wet, or windy it might be!

Date:

Astronomy

Oct. 27, 2013 Rise Set
Actual Time 8:03 AM EDT 6:33 PM EDT
Civil Twilight 7:34 AM EDT 7:02 PM EDT
Nautical Twilight 7:00 AM EDT 7:36 PM EDT
Astronomical Twilight 6:28 AM EDT 8:08 PM EDT
Moon 12:49 AM EDT (10/27) 2:51 PM EDT (10/27)
Length of Visible Light 11h 28m
Length of Day
10h 30m
Last Quarter, 44% of the Moon is Illuminated
Oct 27
Last Quarter
Nov 3
New
Nov 10
First Quarter
Nov 17
Full
Nov 25
Last Quarter

Hourly Weather History & Observations

Time (EDT) Temp. Windchill Dew Point Humidity Pressure Visibility Wind Dir Wind Speed Gust Speed Precip Events Conditions
12:53 AM 36.0 °F 30.3 °F 30.0 °F 79% 30.01 in 10.0 mi West 6.9 mph - N/A   Clear
1:53 AM 35.1 °F 29.3 °F 30.0 °F 82% 30.01 in 10.0 mi West 6.9 mph - N/A   Scattered Clouds
2:53 AM 36.0 °F 31.1 °F 30.0 °F 79% 30.01 in 10.0 mi West 5.8 mph - N/A   Mostly Cloudy
3:53 AM 33.1 °F 27.7 °F 28.9 °F 85% 30.00 in 10.0 mi WSW 5.8 mph - N/A   Clear
4:53 AM 33.1 °F 27.7 °F 28.9 °F 85% 30.02 in 10.0 mi WSW 5.8 mph - N/A   Clear
5:53 AM 35.1 °F - 30.0 °F 82% 30.02 in 10.0 mi Calm Calm - N/A   Clear
6:53 AM 35.1 °F 28.6 °F 30.0 °F 82% 30.03 in 10.0 mi WSW 8.1 mph - N/A   Clear
7:53 AM 33.1 °F 28.7 °F 28.0 °F 82% 30.04 in 10.0 mi WSW 4.6 mph - N/A   Clear
8:53 AM 34.0 °F 29.8 °F 28.9 °F 82% 30.06 in 10.0 mi WSW 4.6 mph - N/A   Mostly Cloudy
9:53 AM 37.9 °F 33.5 °F 30.0 °F 73% 30.07 in 10.0 mi SW 5.8 mph - N/A   Overcast
10:53 AM 41.0 °F 37.1 °F 30.9 °F 67% 30.07 in 10.0 mi SW 5.8 mph - N/A   Overcast
11:53 AM 45.0 °F 40.6 °F 30.9 °F 58% 30.07 in 10.0 mi WSW 8.1 mph - N/A   Overcast
12:53 PM 46.9 °F - 30.0 °F 52% 30.06 in 10.0 mi WSW 5.8 mph - N/A   Overcast
1:53 PM 50.0 °F - 32.0 °F 50% 30.02 in 10.0 mi WSW 10.4 mph - N/A   Overcast
2:53 PM 50.0 °F - 32.0 °F 50% 30.00 in 10.0 mi SW 11.5 mph 18.4 mph N/A   Overcast
3:53 PM 51.1 °F - 32.0 °F 48% 29.99 in 10.0 mi WSW 10.4 mph 20.7 mph N/A   Overcast
4:53 PM 52.0 °F - 32.0 °F 47% 29.98 in 10.0 mi SW 11.5 mph 18.4 mph N/A   Mostly Cloudy
5:53 PM 51.1 °F - 30.9 °F 46% 29.99 in 10.0 mi SW 10.4 mph - N/A   Clear
6:53 PM 48.0 °F - 30.0 °F 50% 29.99 in 10.0 mi SSW 4.6 mph - N/A   Clear
7:53 PM 46.0 °F 41.9 °F 30.9 °F 56% 29.99 in 10.0 mi SSW 8.1 mph - N/A   Clear
8:53 PM 45.0 °F 41.8 °F 28.9 °F 53% 30.00 in 10.0 mi SSW 5.8 mph - N/A   Clear
9:53 PM 44.1 °F 40.8 °F 28.9 °F 55% 30.01 in 10.0 mi SW 5.8 mph - N/A   Clear
10:53 PM 39.9 °F 37.8 °F 28.9 °F 65% 30.04 in 10.0 mi West 3.5 mph - N/A   Clear
11:53 PM 39.0 °F - 28.0 °F 65% 30.05 in 10.0 mi Calm Calm - N/A   Scattered Clouds